Date String (YYYY-MM-DD hh:mm:ss) UTC,Instrument flags,absolute air pressure of the measurement (hPa),sample flow rate (lpm),inlet stack bypass flow (lpm),air temperature of the measurement (°C),ambient temperature measured by the external sensor (°C),aerosol sample conditioner tube jacket temperature (°C),OPC LED temperature (°C),internal box temperature (°C),relative humidity of the measurement (%),span deviation,mass concentration of particles derived from Lorenz-Mie calculation of OPC scattering (μg/m³),mass concentration of particles derived from Lorenz-Mie calculation of OPC scattering (μg/m³),mass concentration of particles derived from Lorenz-Mie calculation of OPC scattering (μg/m³)
DateTimeUTC,F1_M11,P_M11,Q1_M11,Q2_M11,T1_M11,T2_M11,T3_M11,T4_M11,T5_M11,U1_M11,ZSPAN_M11,X0_M11,X2_M11,X1_M11
2023-10-05 07:00:00,SystemResetWarning,0834.7,4.99,000.00,029.4,027.9,000.0,037.8,031.0,11.8,0000.0,0002.12,0001.33,0001.14
2023-10-05 07:01:00,SystemResetWarning,0834.8,5.00,000.00,029.4,027.9,000.0,037.9,031.0,11.8,0000.0,0002.06,0001.30,0001.15
2023-10-05 07:02:00,SystemResetWarning,0834.8,5.00,000.00,029.4,027.9,000.0,037.8,031.0,11.8,0000.0,0002.18,0001.31,0001.14
2023-10-05 07:03:00,SystemResetWarning,0834.7,5.00,000.00,029.4,027.9,000.0,037.8,031.0,11.8,0000.0,0002.21,0001.30,0001.14
2023-10-05 07:04:00,SystemResetWarning,0834.8,5.00,000.00,029.4,027.9,000.0,037.8,031.0,11.8,0000.0,0002.20,0001.30,0001.14
2023-10-05 07:05:00,SystemResetWarning,0835.1,5.00,000.00,029.4,027.9,000.0,037.8,031.0,11.8,0000.0,0002.19,0001.29,0001.13
2023-10-05 07:06:00,SystemResetWarning,0835.0,5.00,000.00,029.4,027.9,000.0,037.8,031.0,11.8,0000.0,0002.12,0001.27,0001.13
2023-10-05 07:07:00,SystemResetWarning,0835.0,5.00,000.00,029.4,027.9,000.0,037.8,031.0,11.8,0000.0,0002.29,0001.28,0001.12
2023-10-05 07:08:00,SystemResetWarning,0834.7,5.01,000.00,029.4,027.9,000.0,037.8,031.0,12.0,0000.0,0002.34,0001.30,0001.14
2023-10-05 07:09:00,SystemResetWarning,0834.7,5.00,000.00,029.4,027.9,000.0,037.8,031.0,12.0,0000.0,0002.39,0001.31,0001.14
2023-10-05 07:10:00,SystemResetWarning,0834.8,5.00,000.00,029.4,027.9,000.0,037.8,031.0,12.1,0000.0,0002.32,0001.30,0001.14
2023-10-05 07:11:00,SystemResetWarning,0835.3,5.00,000.00,029.4,027.9,000.0,037.8,031.0,12.1,0000.0,0002.14,0001.28,0001.15
2023-10-05 07:12:00,SystemResetWarning,0835.4,5.00,000.00,029.4,027.9,000.0,037.8,031.0,12.1,0000.0,0002.12,0001.27,0001.14
2023-10-05 07:13:00,SystemResetWarning,0835.2,5.00,000.00,029.4,027.9,000.0,037.8,031.0,12.1,0000.0,0002.02,0001.26,0001.14
2023-10-05 07:14:00,SystemResetWarning,0834.9,4.99,000.00,029.4,027.9,000.0,037.8,031.0,12.1,0000.0,0001.99,0001.26,0001.13
2023-10-05 07:15:00,SystemResetWarning,0835.0,5.00,000.00,029.4,027.9,000.0,037.8,031.0,12.0,0000.0,0002.07,0001.29,0001.14
2023-10-05 07:16:00,SystemResetWarning,0835.0,4.99,000.00,029.4,027.9,000.0,037.8,031.0,12.2,0000.0,0002.11,0001.31,0001.16
2023-10-05 07:17:00,SystemResetWarning,0834.9,5.00,000.00,029.4,027.9,000.0,037.8,031.0,12.3,0000.0,0002.13,0001.32,0001.16
2023-10-05 07:18:00,SystemResetWarning,0834.9,5.00,000.00,029.4,028.0,000.0,037.8,031.0,12.2,0000.0,0001.97,0001.32,0001.16
2023-10-05 07:19:00,SystemResetWarning,0834.9,5.00,000.00,029.4,028.0,000.0,037.8,031.0,12.2,0000.0,0001.90,0001.29,0001.15
2023-10-05 07:20:00,SystemResetWarning,0835.0,5.01,000.00,029.4,028.0,000.0,037.8,031.0,12.2,0000.0,0001.82,0001.27,0001.16
2023-10-05 07:21:00,SystemResetWarning,0835.0,5.00,000.00,029.4,028.0,000.0,037.8,031.0,12.3,0000.0,0001.83,0001.29,0001.16
2023-10-05 07:22:00,SystemResetWarning,0835.0,5.01,000.00,029.4,028.0,000.0,037.9,031.0,12.3,0000.0,0001.88,0001.29,0001.15
2023-10-05 07:23:00,SystemResetWarning,0835.0,5.00,000.00,029.4,027.9,000.0,037.9,031.0,12.4,0000.0,0001.97,0001.30,0001.16
2023-10-05 07:24:00,SystemResetWarning,0835.0,4.99,000.00,029.4,027.9,000.0,037.9,031.0,12.4,0000.0,0002.07,0001.31,0001.16
2023-10-05 07:25:00,SystemResetWarning,0835.0,4.99,000.00,029.4,027.9,000.0,037.9,031.0,12.3,0000.0,0002.10,0001.29,0001.16
2023-10-05 07:26:00,SystemResetWarning,0835.1,5.00,000.00,029.4,027.9,000.0,037.9,031.0,12.0,0000.0,0002.04,0001.28,0001.16
2023-10-05 07:27:00,SystemResetWarning,0835.1,5.01,000.00,029.4,027.9,000.0,037.9,031.0,12.1,0000.0,0002.01,0001.26,0001.16
2023-10-05 07:28:00,SystemResetWarning,0835.1,5.00,000.00,029.4,027.9,000.0,037.9,031.0,12.1,0000.0,0002.04,0001.28,0001.17
2023-10-05 07:29:00,SystemResetWarning,0835.1,5.00,000.00,029.4,027.9,000.0,037.9,031.0,12.1,0000.0,0002.10,0001.31,0001.18
2023-10-05 07:30:00,SystemResetWarning,0835.1,5.01,000.00,029.4,027.9,000.0,037.9,031.0,12.2,0000.0,0002.14,0001.32,0001.19
2023-10-05 07:31:00,SystemResetWarning,0835.2,5.00,000.00,029.4,027.9,000.0,037.9,031.0,12.2,0000.0,0002.13,0001.32,0001.18
2023-10-05 07:32:00,SystemResetWarning,0835.1,5.00,000.00,029.4,027.9,000.0,037.9,031.0,12.2,0000.0,0002.15,0001.31,0001.18
2023-10-05 07:33:00,SystemResetWarning,0835.1,5.00,000.00,029.4,027.9,000.0,037.9,031.0,12.2,0000.0,0002.10,0001.32,0001.19
2023-10-05 07:34:00,SystemResetWarning,0835.1,5.00,000.00,029.4,027.9,000.0,037.9,031.0,12.2,0000.0,0002.03,0001.32,0001.19
2023-10-05 07:35:00,SystemResetWarning,0835.2,5.00,000.00,029.4,027.9,000.0,037.8,031.0,12.2,0000.0,0001.99,0001.33,0001.19
2023-10-05 07:36:00,SystemResetWarning,0835.2,5.00,000.00,029.4,027.9,000.0,037.9,031.0,12.2,0000.0,0002.05,0001.38,0001.21
2023-10-05 07:37:00,SystemResetWarning,0835.1,5.00,000.00,029.4,028.0,000.0,037.9,031.0,12.2,0000.0,0002.15,0001.41,0001.21
2023-10-05 07:38:00,SystemResetWarning,0835.1,5.00,000.00,029.4,028.0,000.0,037.9,031.0,12.2,0000.0,0002.24,0001.44,0001.20
2023-10-05 07:39:00,SystemResetWarning,0835.1,4.99,000.00,029.4,028.0,000.0,037.9,031.0,12.1,0000.0,0002.25,0001.43,0001.20
2023-10-05 07:40:00,SystemResetWarning,0835.1,5.00,000.00,029.4,028.0,000.0,037.9,031.0,12.1,0000.0,0004.11,0001.41,0001.19
2023-10-05 07:41:00,SystemResetWarning,0835.1,5.00,000.00,029.4,028.0,000.0,037.9,031.1,12.1,0000.0,0005.24,0001.42,0001.18
2023-10-05 07:42:00,SystemResetWarning,0835.1,5.00,000.00,029.4,028.0,000.0,037.9,031.1,12.1,0000.0,0005.47,0001.49,0001.18
2023-10-05 07:43:00,SystemResetWarning,0835.1,5.00,000.00,029.4,028.0,000.0,037.9,031.1,12.1,0000.0,0005.51,0001.50,0001.17
2023-10-05 07:44:00,SystemResetWarning,0835.1,5.01,000.00,029.4,028.0,000.0,037.9,031.1,12.1,0000.0,0005.48,0001.49,0001.17
2023-10-05 07:45:00,SystemResetWarning,0835.1,5.00,000.00,029.5,028.0,000.0,037.9,031.1,12.1,0000.0,0005.46,0001.48,0001.17
2023-10-05 07:46:00,SystemResetWarning,0835.1,5.01,000.00,029.5,028.0,000.0,037.9,031.1,12.1,0000.0,0005.54,0001.46,0001.16
2023-10-05 07:47:00,SystemResetWarning,0835.1,5.00,000.00,029.5,028.0,000.0,037.9,031.1,12.1,0000.0,0005.37,0001.39,0001.12
2023-10-05 07:48:00,SystemResetWarning,0835.2,4.99,000.00,029.5,028.0,000.0,037.9,031.1,12.1,0000.0,0005.25,0001.34,0001.11
2023-10-05 07:49:00,SystemResetWarning,0835.2,4.99,000.00,029.5,028.0,000.0,037.9,031.1,12.1,0000.0,0005.11,0001.29,0001.08
2023-10-05 07:50:00,SystemResetWarning,0835.2,5.00,000.00,029.5,028.1,000.0,037.9,031.1,12.2,0000.0,0005.03,0001.25,0001.06
2023-10-05 07:51:00,SystemResetWarning,0835.2,5.01,000.00,029.5,028.1,000.0,037.9,031.1,12.3,0000.0,0003.72,0001.23,0001.04
2023-10-05 07:52:00,SystemResetWarning,0835.2,5.01,000.00,029.5,028.1,000.0,037.9,031.1,12.3,0000.0,0001.95,0001.20,0001.03
2023-10-05 07:53:00,SystemResetWarning,0835.2,5.00,000.00,029.5,028.1,000.0,037.9,031.1,12.4,0000.0,0001.76,0001.14,0001.03
2023-10-05 07:54:00,SystemResetWarning,0835.3,5.01,000.00,029.5,028.1,000.0,037.9,031.1,12.4,0000.0,0001.73,0001.13,0001.03
2023-10-05 07:55:00,SystemResetWarning,0835.3,5.00,000.00,029.5,028.1,000.0,037.9,031.1,12.3,0000.0,0001.79,0001.16,0001.03
2023-10-05 07:56:00,SystemResetWarning,0835.3,5.01,000.00,029.5,028.0,000.0,037.9,031.1,12.3,0000.0,0001.84,0001.18,0001.03
2023-10-05 07:57:00,SystemResetWarning,0835.3,5.00,000.00,029.5,028.0,000.0,037.9,031.1,12.4,0000.0,0001.74,0001.18,0001.04
2023-10-05 07:58:00,SystemResetWarning,0835.2,5.00,000.00,029.5,028.0,000.0,037.9,031.1,12.3,0000.0,0001.74,0001.21,0001.06
2023-10-05 07:59:00,SystemResetWarning,0835.3,5.00,000.00,029.5,028.0,000.0,037.9,031.1,12.3,0000.0,0001.83,0001.25,0001.08
